[[{"header":{"parameterUnit":"m.s-1","parameterCategory":1,"la1":30.2991,"la2":30.254,"lo1":-89.0895,"lo2":-89.0444,"dy":0.0017,"dx":0.0017,"nx":28,"ny":28,"refTime":"2025-03-13T09:00:00:Z","depth":0,"parameterNumber":2,"parameterNumberName":"U-component_of_WINDS"},"data":[0,0,0,0,0,0,0,0,0,0,0,0,0,0,0,0,0,0,0,0,0,0,0,0,0,0,0,0,0,0,0,0,0,0,0,0,0,0,0,0,0,0,0,0,0,0,0,0,0,0,0,0,0,0,0,0,0,0,-4.3236,-4.3237,0,-4.3326,-4.3327,-4.3328,-4.3321,-4.3319,-4.3318,-4.3317,-4.3408,-4.3411,-4.3415,0,0,0,0,0,0,0,0,0,0,0,0,0,-4.3057,-4.306,-4.3236,-4.3237,-4.3238,-4.3326,-4.3327,-4.3328,-4.3321,-4.3319,-4.3318,-4.3316,-4.3406,-4.3411,-4.3415,0,0,0,0,0,0,0,0,0,0,0,0,0,-4.314,-4.3061,-4.3236,-4.3245,-4.3247,-4.3326,-4.3327,-4.3329,-4.3321,-4.3319,-4.3317,-4.3315,-4.3405,-4.341,-4.3416,-4.3491,0,0,-4.3433,-4.3435,0,0,0,0,0,0,0,0,-4.3135,-4.3146,-4.3242,-4.3244,-4.3247,-4.331,-4.3297,-4.3383,-4.3322,-4.3293,-4.3317,-4.3314,-4.3377,-4.3384,-4.3406,-4.3495,-4.3499,-4.3433,-4.3437,-4.3439,-4.3441,0,0,0,0,0,0,0,-4.3129,-4.3142,-4.3271,-4.3244,-4.3246,-4.3245,-4.3254,-4.3314,-4.3345,-4.3295,-4.3295,-4.3306,-4.3377,-4.3401,-4.3408,-4.35,-4.3433,-4.3438,-4.3441,-4.3444,-4.3657,-4.3659,0,0,0,0,0,0,-4.3121,-4.3137,-4.3269,-4.3274,-4.3185,-4.3249,-4.326,-4.3292,-4.3344,-4.3351,-4.3307,-4.3305,-4.3392,-4.3401,-4.3411,-4.3502,-4.3439,-4.3444,-4.3447,-4.3654,-4.3657,-4.366,0,0,0,0,0,0,-4.3118,-4.3133,-4.3265,-4.3206,-4.3222,-4.3255,-4.329,-4.3295,-4.3317,-4.3354,-4.3359,-4.3325,-4.3391,-4.3403,-4.3471,-4.3505,-4.3447,-4.3452,-4.3651,-4.3655,-4.3658,-4.3684,0,0,0,0,0,0,-4.3112,-4.3132,-4.316,-4.3207,-4.3226,-4.3324,-4.3292,-4.3298,-4.3327,-4.3325,-4.3372,-4.3378,-4.339,-4.3463,-4.3477,-4.3512,-4.3456,-4.3649,-4.3653,-4.3657,-4.3681,-4.3688,-4.3695,0,0,0,0,0,-4.3106,-4.3164,-4.3162,-4.3178,-4.3262,-4.3325,-4.3336,-4.335,-4.333,-4.3359,-4.3383,-4.3376,-4.35,-4.347,-4.3486,-4.3522,-4.3646,-4.3652,-4.3657,-4.3677,-4.3687,-4.3695,0,0,0,0,0,0,-4.312,-4.317,-4.3168,-4.3243,-4.328,-4.3324,-4.3361,-4.336,-4.3403,-4.3399,-4.3414,-4.3425,-4.3493,-4.3515,-4.3481,-4.3598,-4.357,-4.3579,-4.3581,-4.359,-4.3597,-4.3589,-4.3461,0,0,0,0,0,-4.3132,-4.3179,-4.3221,-4.3282,-4.3301,-4.3328,-4.3356,-4.3364,-4.3403,-4.3418,-4.3447,-4.3485,-4.3532,-4.3563,-4.3608,-4.3685,-4.3695,-4.3718,-4.3725,-4.3731,-4.3737,-4.3779,-4.379,-4.3677,-4.3677,-4.3677,0,0,-4.3156,-4.319,-4.3218,-4.3286,-4.3315,-4.3364,-4.3341,-4.3393,-4.3429,-4.3426,-4.3491,-4.3514,-4.3558,-4.363,-4.3664,-4.3651,-4.3771,-4.3738,-4.3742,-4.3745,-4.3786,-4.3796,-4.3806,-4.368,-4.368,-4.3679,0,0,-4.3225,-4.3256,-4.331,-4.3341,-4.3387,-4.3405,-4.3418,-4.3463,-4.3478,-4.3545,-4.3543,-4.3587,-4.3668,-4.3699,-4.3726,-4.3809,-4.3805,-4.3824,-4.386,-4.3901,-4.391,-4.3918,-4.3946,-4.3957,-4.3831,-4.3831,-4.3831,0,-4.3249,-4.3322,-4.3338,-4.3391,-4.3421,-4.3422,-4.3477,-4.3506,-4.3564,-4.3585,-4.357,-4.3673,-4.3702,-4.3782,-4.3802,-4.3825,-4.384,-4.3817,-4.3908,-4.3916,-4.3923,-4.3951,-4.3962,-4.3833,-4.3833,-4.3833,-4.3832,0,-4.3349,-4.34,-4.3439,-4.3496,-4.3531,-4.3584,-4.3608,-4.3642,-4.3647,-4.3667,-4.3735,-4.3771,-4.3824,-4.3844,-4.385,-4.3925,-4.3915,-4.3904,-4.3876,-4.3936,-4.3962,-4.3972,-4.3836,-4.3835,-4.3834,-4.3834,0,0,-4.3426,-4.3493,-4.3506,-4.3533,-4.3585,-4.3624,-4.3679,-4.3731,-4.3759,-4.38,-4.3846,-4.3916,-4.3906,-4.3937,-4.3946,-4.3982,-4.4045,-4.3967,-4.3968,-4.3978,-4.4129,-4.4136,-4.4148,-4.4044,-4.4046,-4.4048,-4.4125,0,-4.3498,-4.3595,-4.3612,-4.3696,-4.3743,-4.3746,-4.3794,-4.3831,-4.3851,-4.3895,-4.3918,-4.3966,-4.3951,-4.3969,-4.4005,-4.403,-4.4075,-4.4025,-4.4085,-4.4087,-4.4071,-4.4161,-4.4168,-4.4239,-4.4136,-4.4137,-4.4139,0,-4.3595,-4.3639,-4.3728,-4.3775,-4.3795,-4.3837,-4.3887,-4.3929,-4.3972,-4.3984,-4.4019,-4.4025,-4.4082,-4.4054,-4.4132,-4.4098,-4.4124,-4.414,-4.4144,-4.4147,-4.4114,-4.4166,-4.4262,-4.4272,-4.4155,-4.4154,-4.4153,0,-4.364,-4.3722,-4.3786,-4.3808,-4.3865,-4.3894,-4.3919,-4.396,-4.3991,-4.4035,-4.4055,-4.4106,-4.4132,-4.4171,-4.4191,-4.4169,-4.4268,-4.4241,-4.4279,-4.4278,-4.4297,-4.4295,-4.4397,-4.4318,-4.4318,-4.4318,-4.4318,0,-4.3717,-4.3771,-4.3807,-4.3845,-4.3906,-4.3926,-4.3986,-4.401,-4.4047,-4.4091,-4.4098,-4.4138,-4.4163,-4.4208,-4.4224,-4.4286,-4.4298,-4.431,-4.4313,-4.4308,-4.4306,-4.4323,-4.4317,-4.4321,-4.432,-4.4319,-4.4319,0,-4.3776,-4.3802,-4.3872,-4.392,-4.3934,-4.3976,-4.4018,-4.4056,-4.4078,-4.4133,-4.4147,-4.4181,-4.4234,-4.4259,-4.4324,-4.4335,-4.4405,-4.4406,-4.439,-4.4391,-4.4426,-4.4422,-4.454,-4.4557,-4.4469,-4.447,-4.4471,0,-4.3822,-4.3864,-4.3918,-4.3948,-4.3973,-4.4022,-4.4054,-4.4076,-4.4109,-4.4162,-4.4194,-4.4247,-4.4291,-4.4376,-4.4406,-4.4457,-4.4457,-4.4496,-4.4465,-4.4458,-4.4456,-4.4452,-4.4456,-4.45,-4.4501,-4.4502,-4.4502,0,-4.3901,-4.3913,-4.3959,-4.401,-4.4048,-4.4089,-4.413,-4.4154,-4.4183,-4.422,-4.4274,-4.4309,-4.4376,-4.4429,-4.4482,-4.4508,-4.4509,-4.4512,-4.4523,-4.4517,-4.4505,-4.451,-4.4403,-4.4509,-4.4508,-4.4507,-4.4507,-4.4507,-4.3954,-4.3991,-4.4035,-4.4086,-4.4119,-4.4157,-4.4196,-4.4223,-4.4269,-4.4326,-4.4337,-4.4395,-4.4438,-4.4509,-4.4537,-4.4583,-4.4574,-4.459,-4.4594,-4.4597,-4.4598,-4.4501,-4.4593,-4.4593,-4.4593,-4.4593,-4.4593,0,-4.4032,-4.4061,-4.4108,-4.4165,-4.4205,-4.4206,-4.4251,-4.4284,-4.4336,-4.4376,-4.4419,-4.4483,-4.4535,-4.457,-4.4623,-4.4653,-4.4655,-4.4666,-4.4662,-4.4668,-4.4604,-4.4588,-4.4663,-4.4663,-4.4663,-4.4663,-4.4663,-4.4663,-4.4077,-4.4139,-4.4156,-4.4236,-4.4265,-4.4322,-4.4348,-4.4383,-4.4415,-4.4485,-4.4529,-4.4552,-4.4591,-4.4647,-4.4695,-4.4704,-4.4722,-4.4733,-4.4741,-4.468,-4.4673,-4.4665,-4.4651,-4.4737,-4.4737,-4.4801,-4.4802,-4.4802]},{"header":{"parameterUnit":"m.s-1","parameterCategory":1,"la1":30.2991,"la2":30.254,"lo1":-89.0895,"lo2":-89.0444,"dy":0.0017,"dx":0.0017,"nx":28,"ny":28,"refTime":"2025-03-13T09:00:00:Z","depth":0,"parameterNumber":3,"parameterNumberName":"V-component_of_WINDS"},"data":[0,0,0,0,0,0,0,0,0,0,0,0,0,0,0,0,0,0,0,0,0,0,0,0,0,0,0,0,0,0,0,0,0,0,0,0,0,0,0,0,0,0,0,0,0,0,0,0,0,0,0,0,0,0,0,0,0,0,3.4574,3.4575,0,3.4675,3.4676,3.4677,3.4715,3.4714,3.4714,3.4714,3.4816,3.4819,3.4822,0,0,0,0,0,0,0,0,0,0,0,0,0,3.4416,3.4419,3.4574,3.4575,3.4577,3.4674,3.4676,3.4677,3.4715,3.4714,3.4714,3.4714,3.4815,3.4818,3.4822,0,0,0,0,0,0,0,0,0,0,0,0,0,3.4498,3.442,3.4574,3.4607,3.4611,3.4674,3.4676,3.4678,3.4715,3.4714,3.4714,3.4714,3.4814,3.4818,3.4822,3.4859,0,0,3.4836,3.4838,0,0,0,0,0,0,0,0,3.4493,3.4503,3.4601,3.4605,3.461,3.4682,3.4658,3.4739,3.4715,3.4675,3.4714,3.4713,3.4771,3.4779,3.4799,3.4864,3.4869,3.4837,3.4839,3.4841,3.4842,0,0,0,0,0,0,0,3.4487,3.4499,3.4614,3.4602,3.4608,3.4618,3.4629,3.4673,3.4725,3.4679,3.4682,3.4693,3.4774,3.4795,3.4802,3.487,3.4836,3.484,3.4843,3.4845,3.4974,3.4975,0,0,0,0,0,0,3.4476,3.4494,3.4611,3.4617,3.4549,3.4621,3.4633,3.4659,3.4724,3.4734,3.4694,3.4695,3.4787,3.4797,3.4806,3.4856,3.4841,3.4845,3.4848,3.4973,3.4974,3.4975,0,0,0,0,0,0,3.4472,3.4486,3.4607,3.4557,3.4573,3.4624,3.4653,3.4661,3.4682,3.4736,3.4745,3.4706,3.4787,3.4799,3.4847,3.486,3.4847,3.4852,3.4973,3.4974,3.4975,3.4955,0,0,0,0,0,0,3.4468,3.4485,3.4498,3.4557,3.4575,3.4645,3.4654,3.4664,3.469,3.4693,3.4749,3.4758,3.4788,3.484,3.4851,3.4866,3.4855,3.4972,3.4973,3.4974,3.4954,3.4955,3.4955,0,0,0,0,0,3.4462,3.4488,3.4499,3.4513,3.4594,3.4646,3.4657,3.4691,3.4691,3.4706,3.4741,3.4756,3.4856,3.4844,3.4857,3.4873,3.4971,3.4973,3.4974,3.4954,3.4955,3.4955,0,0,0,0,0,0,3.4429,3.4496,3.4509,3.4554,3.4594,3.4652,3.4672,3.469,3.473,3.4731,3.4771,3.4783,3.4828,3.4855,3.4841,3.4915,3.4915,3.4919,3.4895,3.4896,3.4897,3.4889,3.4859,0,0,0,0,0,3.4427,3.4464,3.452,3.4555,3.4574,3.462,3.4644,3.4667,3.471,3.4727,3.4765,3.4806,3.4847,3.4873,3.4913,3.4959,3.4973,3.4976,3.4977,3.4977,3.498,3.501,3.5013,3.4981,3.4981,3.4981,0,0,3.4423,3.4464,3.4484,3.4549,3.4583,3.4621,3.4634,3.4672,3.4702,3.4732,3.478,3.481,3.4859,3.4906,3.4929,3.493,3.4993,3.4979,3.4979,3.4982,3.5012,3.5015,3.5017,3.4982,3.4982,3.4981,0,0,3.4435,3.4469,3.4503,3.4538,3.4589,3.462,3.4628,3.4685,3.4706,3.4755,3.478,3.4815,3.4884,3.4919,3.4945,3.4975,3.4992,3.4987,3.4989,3.5017,3.502,3.5022,3.5035,3.5039,3.499,3.499,3.499,0,3.4424,3.4482,3.4518,3.4557,3.4586,3.4617,3.4653,3.4684,3.4746,3.4766,3.4767,3.4857,3.4891,3.4949,3.4956,3.4976,3.4988,3.498,3.5016,3.5019,3.5022,3.5035,3.5039,3.4989,3.4989,3.4989,3.4989,0,3.4467,3.4507,3.4528,3.4589,3.462,3.4657,3.47,3.4727,3.4748,3.4779,3.483,3.4874,3.4925,3.494,3.496,3.5001,3.5001,3.5009,3.501,3.5024,3.5037,3.5042,3.4988,3.4988,3.4988,3.4989,0,0,3.4459,3.4542,3.4549,3.4579,3.4639,3.4672,3.4711,3.4762,3.4786,3.4828,3.4863,3.4923,3.4932,3.4962,3.4986,3.5011,3.5035,3.5016,3.5018,3.502,3.5086,3.5081,3.5085,3.5046,3.5047,3.5048,3.5082,0,3.4481,3.4553,3.4589,3.4646,3.4685,3.4717,3.4751,3.4793,3.4824,3.4862,3.4896,3.4938,3.4945,3.4964,3.499,3.5026,3.5049,3.5024,3.5081,3.5082,3.5069,3.5092,3.5086,3.5116,3.5087,3.5088,3.5089,0,3.4515,3.456,3.4621,3.468,3.4698,3.4728,3.478,3.4816,3.4865,3.4886,3.4921,3.4946,3.499,3.4988,3.5051,3.5033,3.5059,3.5081,3.5083,3.509,3.5087,3.5101,3.5126,3.5131,3.5097,3.5096,3.5095,0,3.4506,3.4581,3.4628,3.4652,3.4722,3.4743,3.4773,3.4822,3.4851,3.4897,3.4917,3.4966,3.4993,3.5031,3.5069,3.5064,3.5129,3.513,3.5149,3.5148,3.5161,3.516,3.5192,3.5175,3.5175,3.5175,3.5175,0,3.4527,3.4564,3.4625,3.4654,3.4697,3.4739,3.478,3.4813,3.4857,3.4894,3.4924,3.4958,3.5005,3.5046,3.5076,3.5125,3.5136,3.5155,3.5163,3.5153,3.5151,3.5171,3.517,3.5177,3.5176,3.5176,3.5176,0,3.4524,3.4566,3.462,3.4683,3.47,3.4729,3.4784,3.4814,3.4847,3.4894,3.4907,3.4959,3.5009,3.5051,3.5115,3.5136,3.5187,3.5195,3.5171,3.5175,3.5193,3.5192,3.524,3.525,3.5225,3.5225,3.5225,0,3.4535,3.4564,3.4632,3.4659,3.4689,3.4732,3.4764,3.4807,3.4838,3.4898,3.4922,3.4974,3.5018,3.5096,3.514,3.519,3.5201,3.5215,3.5209,3.5199,3.5204,3.5202,3.5207,3.5215,3.5215,3.5215,3.5215,0,3.4551,3.4571,3.4615,3.4668,3.4705,3.4748,3.4792,3.4812,3.4864,3.4898,3.495,3.4984,3.5052,3.5104,3.516,3.5192,3.5213,3.5217,3.5225,3.5216,3.5201,3.5211,3.5174,3.5216,3.5216,3.5216,3.5216,3.5216,3.4556,3.4585,3.4638,3.4687,3.4725,3.4766,3.4799,3.4838,3.4882,3.4941,3.4964,3.5018,3.5069,3.5147,3.5179,3.5223,3.5225,3.5235,3.5238,3.5241,3.524,3.5193,3.5233,3.5233,3.5233,3.5233,3.5233,0,3.4575,3.4612,3.4657,3.4718,3.4758,3.4775,3.4826,3.4857,3.4905,3.4951,3.4995,3.5056,3.5108,3.5157,3.5212,3.5237,3.5249,3.525,3.5249,3.5257,3.5234,3.5223,3.5241,3.5241,3.5241,3.5241,3.5241,3.5241,3.459,3.4641,3.4668,3.4739,3.4776,3.4829,3.4857,3.4896,3.4934,3.5002,3.5045,3.5078,3.5126,3.5185,3.5234,3.5247,3.5267,3.5266,3.5282,3.526,3.5258,3.5257,3.5247,3.527,3.527,3.5303,3.5303,3.5303]}]]